AirNav   Air Wisconsin Up To $57,000 Bonus
 
 811 users online  

99MO Parkland Health Center Heliport
Bonne Terre, Missouri, USA

GOING TO BONNE TERRE?


FAA INFORMATION EFFECTIVE 10 OCTOBER 2019

Location

FAA Identifier: 99MO
Lat/Long: 37-54-43.1100N 090-31-55.6700W
37-54.718500N 090-31.927833W
37.9119750,-90.5321306
(estimated)
Elevation: 850 ft. / 259 m (estimated)
Variation: 01E (1995)
From city: 1 mile S of BONNE TERRE, MO
Time zone: UTC -5 (UTC -6 during Standard Time)
Zip code: 63628

Heliport Operations

Heliport use: Private use, FOR MEDICAL USE ONLY.
Activation date: 09/1996
Control tower: no
ARTCC: KANSAS CITY CENTER
FSS: COLUMBIA FLIGHT SERVICE STATION
Attendance: CONTINUOUS
Wind indicator: yes
Segmented circle: no
Lights: FOR PERIMETER LIGHTS CALL 573-760-8163.

Heliport Communications

WX AWOS-3PT at FAM (10 nm SE): 119.275 (573-756-6042)

Nearby radio navigation aids

VOR radial/distance  VOR name  Freq  Var
FAMr314/20.1FARMINGTON VORTAC115.7001E

Heliport Services

Runway Information

Helipad H1

Dimensions: 40 x 40 ft. / 12 x 12 m
Surface: asphalt
Latitude: 37-54.718500N
Longitude: 090-31.927833W
Elevation: 850.0 ft.
Traffic pattern: leftleft

Heliport Ownership and Management from official FAA records

Ownership: Privately-owned
Owner: PARKLAND HEALTH CENTER, BONNE TERRE
7245 RAIDER ROAD
BONNE TERRE, MO 63628
Phone 573-760-8163
Manager: STEVE MARLER, ADMIN
7245 RAIDER ROAD
BONNE TERRE, MO 63628
Phone 573-358-4643

Additional Remarks

A52-H1 40 FT POWER LINE 75 FT E & 75 FT BLDG 200 FT N OF HELIPAD.
OWNER DESIRES ARPT NOT BE CHARTED.
FOR CD CTC KANSAS CITY ARTCC AT 913-254-8508.

Instrument Procedures

There are no published instrument procedures at 99MO.

Some nearby airports with instrument procedures:

8WC - Washington County Airport (9 nm W)
KFAM - Farmington Regional Airport (10 nm SE)
KFES - Festus Memorial Airport (18 nm N)
H88 - A Paul Vance Fredericktown Regional Airport (22 nm SE)
KPCD - Perryville Regional Airport (32 nm E)
 
Loc | Ops | Rwys | IFR | FBO | Links
Com | Nav | Svcs | Stats | Notes

Kansas City Aviation Department
 
Area around 99MO (Parkland Health Center Heliport)
 
Road maps at: MapQuest Bing Google
 
Aerial photo
No photo
 
Sectional chart

 
Airport distance calculator
Flying to Parkland Health Center Heliport? Find the distance to fly.

From to 99MO

Sunrise and sunset
Times for 19-Oct-2019
 Local
(UTC-5)
 Zulu
(UTC)
Morning civil twilight06:4911:49
Sunrise07:1612:16
Sunset18:1923:19
Evening civil twilight18:4523:45

Current date and time
Zulu (UTC)  20-Oct-2019 02:03:34
Local (UTC-5)  19-Oct-2019 21:03:34
 
METAR
KFAM 
10nm SE 
200156Z AUTO 34005KT 10SM FEW080 14/12 A2981 RMK AO2 RAB0058E09 SLP101 P0000 T01440117
TAF
KCPS 
43nm NE 
192014Z 1920/2018 VRB04KT P6SM BKN150 FM192100 VRB04KT P6SM VCSH BKN100 TEMPO 1921/1924 -SHRA FM200100 VRB03KT P6SM BKN100 FM200900 00000KT P6SM BKN025 FM201600 13004KT P6SM SCT040
KSUS 
45nm N 
192013Z 1920/2018 VRB04KT P6SM VCSH BKN100 TEMPO 1921/1923 -SHRA FM200000 VRB03KT P6SM BKN100 FM200800 00000KT P6SM BKN025 FM201600 13004KT P6SM SCT040
KBLV 
50nm NE 
200000Z 2000/2106 VRB06KT 9999 FEW022 OVC040 QNH2974INS TEMPO 2005/2007 OVC012 BECMG 2006/2007 VRB06KT 6000 BR OVC010 QNH2980INS BECMG 2008/2009 VRB06KT 4800 BR OVC005 QNH2982INS TEMPO 2009/2015 0800 FG BECMG 2015/2016 VRB06KT 9000 BR OVC012 QNH2984INS BECMG 2017/2018 VRB06KT 9999 NSW BKN020 QNH2980INS BECMG 2023/2024 VRB06KT 9999 SCT019 QNH2978INS BECMG 2105/2106 15009KT 8000 BR BKN019 510043 QNH2974INS TX21/2020Z TN11/2011Z
NOTAMs
Click for the latest NOTAMs
NOTAMs are issued by the DoD/FAA and will open in a separate window not controlled by AirNav.

 

 
 

Would you like to see your business listed on this page?

 If your business provides an interesting product or service to pilots, flight crews, aircraft, or users of the Parkland Health Center Heliport, you should consider listing it here.  To start the listing process, click on the button below
 
Add a business
 

Other Pages about Parkland Health Center Heliport

Update a link
 
Copyright © AirNav, LLC. All rights reserved. Privacy Policy  Contact